Location: Banksville Park
(38.5557°N, 75.1182°W)
Time: 13:10:29
(UTC+00:00)

Cosmos 2263 Rocket - Pass Details

Date: 19 September 2020
Orbit: 822 x 849 km, 71.0° (Epoch: 21 October)

Event Time Altitude Azimuth Distance (km) Brightness Sun altitude
Rises 00:34:17 0° 232° (SW) 3,345 5.8 -18.4°
Reaches altitude 10° 00:37:02 10° 244° (WSW) 2,418 5.2 -18.9°
Maximum altitude 00:41:43 28° 302° (WNW) 1,519 4.3 -19.8°
Drops below altitude 10° 00:46:28 10° 1° (N) 2,439 4.8 -20.7°
Sets 00:49:17 0° 13° (NNE) 3,381 5.4 -21.2°
